Time,TemperatureF,DewpointF,PressureIn,WindDirection,WindDirectionDegrees,WindSpeedMPH,WindSpeedGustMPH,Humidity,HourlyPrecipIn,Conditions,Clouds,dailyrainin,SoftwareType,DateUTC
2013-10-28 00:03:00,45.1,32.8,28.95,NE,45,0.0,0.0,62,0.00,,,0.00,WUHU216HW,2013-10-28 05:03:00,
2013-10-28 00:08:00,45.1,32.8,28.95,NE,45,0.0,0.0,62,0.00,,,0.00,WUHU216HW,2013-10-28 05:08:00,
2013-10-28 00:13:00,44.9,32.7,28.96,NNE,23,0.0,2.9,62,0.00,,,0.00,WUHU216HW,2013-10-28 05:13:00,
2013-10-28 00:18:00,44.7,32.5,28.96,NNE,23,0.0,2.9,62,0.00,,,0.00,WUHU216HW,2013-10-28 05:18:00,
2013-10-28 00:23:00,44.4,32.2,28.97,NE,45,0.0,0.0,62,0.00,,,0.00,WUHU216HW,2013-10-28 05:23:00,
2013-10-28 00:28:00,44.4,32.2,28.96,NE,45,0.0,0.0,62,0.00,,,0.00,WUHU216HW,2013-10-28 05:28:00,
2013-10-28 00:33:00,44.2,32.0,28.97,NE,45,0.0,0.0,62,0.00,,,0.00,WUHU216HW,2013-10-28 05:33:00,
2013-10-28 00:39:00,44.0,32.2,28.97,NE,45,0.0,0.0,63,0.00,,,0.00,WUHU216HW,2013-10-28 05:39:00,
2013-10-28 00:44:00,43.8,32.0,28.97,NNE,23,0.0,0.0,63,0.00,,,0.00,WUHU216HW,2013-10-28 05:44:00,
2013-10-28 00:49:00,43.8,32.0,28.97,NE,45,0.0,0.0,63,0.00,,,0.00,WUHU216HW,2013-10-28 05:49:00,
2013-10-28 00:54:00,43.7,31.8,28.97,NNE,23,0.0,0.0,63,0.00,,,0.00,WUHU216HW,2013-10-28 05:54:00,
2013-10-28 00:59:00,43.5,31.7,28.97,NE,45,0.0,0.0,63,0.00,,,0.00,WUHU216HW,2013-10-28 05:59:00,
2013-10-28 01:04:00,43.5,31.7,28.98,NNE,23,6.4,6.4,63,0.00,,,0.00,WUHU216HW,2013-10-28 06:04:00,
2013-10-28 01:09:00,43.3,31.5,28.98,NE,45,0.0,6.4,63,0.00,,,0.00,WUHU216HW,2013-10-28 06:09:00,
2013-10-28 01:14:00,43.1,31.7,28.98,NNE,23,0.0,0.0,64,0.00,,,0.00,WUHU216HW,2013-10-28 06:14:00,
2013-10-28 01:19:00,42.9,31.5,28.98,NNE,23,2.9,2.9,64,0.00,,,0.00,WUHU216HW,2013-10-28 06:19:00,
2013-10-28 01:24:00,42.9,31.5,28.98,NNE,23,0.0,2.9,64,0.00,,,0.00,WUHU216HW,2013-10-28 06:24:00,
2013-10-28 01:29:00,42.8,31.4,28.98,NNE,23,2.0,2.9,64,0.00,,,0.00,WUHU216HW,2013-10-28 06:29:00,
2013-10-28 01:34:00,42.6,31.2,28.99,NE,45,0.4,2.0,64,0.00,,,0.00,WUHU216HW,2013-10-28 06:34:00,
2013-10-28 01:40:00,42.6,31.2,28.99,NE,45,0.0,2.0,64,0.00,,,0.00,WUHU216HW,2013-10-28 06:40:00,
2013-10-28 01:45:00,42.4,31.4,28.99,NNE,23,0.0,0.0,65,0.00,,,0.00,WUHU216HW,2013-10-28 06:45:00,
2013-10-28 01:50:00,42.4,31.4,28.99,NE,45,0.0,0.0,65,0.00,,,0.00,WUHU216HW,2013-10-28 06:50:00,
2013-10-28 01:55:00,42.0,31.1,29.00,NNE,23,4.0,4.0,65,0.00,,,0.00,WUHU216HW,2013-10-28 06:55:00,
2013-10-28 02:00:00,42.0,31.1,29.00,NNE,23,0.0,4.0,65,0.00,,,0.00,WUHU216HW,2013-10-28 07:00:00,
2013-10-28 02:05:00,42.0,31.1,29.00,NNE,23,4.9,4.9,65,0.00,,,0.00,WUHU216HW,2013-10-28 07:05:00,
2013-10-28 02:10:00,41.9,31.3,29.00,NE,45,0.0,4.9,66,0.00,,,0.00,WUHU216HW,2013-10-28 07:10:00,
2013-10-28 02:15:00,41.7,30.7,29.00,NNW,338,2.2,4.9,65,0.00,,,0.00,WUHU216HW,2013-10-28 07:15:00,
2013-10-28 02:20:00,41.5,30.9,29.01,NNE,23,0.0,2.2,66,0.00,,,0.00,WUHU216HW,2013-10-28 07:20:00,
2013-10-28 02:25:00,41.5,30.9,29.00,NE,45,5.8,7.6,66,0.00,,,0.00,WUHU216HW,2013-10-28 07:25:00,
2013-10-28 02:30:00,41.3,30.8,29.01,NNE,23,0.0,7.6,66,0.00,,,0.00,WUHU216HW,2013-10-28 07:30:00,
2013-10-28 02:35:00,41.3,30.8,29.03,NE,45,0.0,3.3,66,0.00,,,0.00,WUHU216HW,2013-10-28 07:35:00,
2013-10-28 02:40:00,41.1,30.6,29.03,NNE,23,0.0,3.3,66,0.00,,,0.00,WUHU216HW,2013-10-28 07:40:00,
2013-10-28 02:45:00,41.0,30.8,29.03,NNE,23,0.0,0.0,67,0.00,,,0.00,WUHU216HW,2013-10-28 07:45:00,
2013-10-28 02:50:00,40.8,30.6,29.03,NNE,23,0.0,0.0,67,0.00,,,0.00,WUHU216HW,2013-10-28 07:50:00,
2013-10-28 02:55:00,40.8,30.6,29.03,NNE,23,0.0,0.0,67,0.00,,,0.00,WUHU216HW,2013-10-28 07:55:00,
2013-10-28 03:00:00,40.6,30.5,29.03,NE,45,0.0,2.6,67,0.00,,,0.00,WUHU216HW,2013-10-28 08:00:00,
2013-10-28 03:05:00,40.6,30.5,29.04,NNE,23,4.6,4.6,67,0.00,,,0.00,WUHU216HW,2013-10-28 08:05:00,
2013-10-28 03:11:00,40.4,30.3,29.04,NE,45,0.0,4.6,67,0.00,,,0.00,WUHU216HW,2013-10-28 08:11:00,
2013-10-28 03:16:00,40.2,30.1,29.04,NE,45,0.0,2.4,67,0.00,,,0.00,WUHU216HW,2013-10-28 08:16:00,
2013-10-28 03:21:00,40.2,30.1,29.05,NNE,23,0.0,2.4,67,0.00,,,0.00,WUHU216HW,2013-10-28 08:21:00,
2013-10-28 03:26:00,40.1,29.9,29.04,NE,45,0.0,0.0,67,0.00,,,0.00,WUHU216HW,2013-10-28 08:26:00,
2013-10-28 03:31:00,39.9,30.1,29.05,NNE,23,0.0,0.0,68,0.00,,,0.00,WUHU216HW,2013-10-28 08:31:00,
2013-10-28 03:36:00,39.9,30.1,29.05,NE,45,0.0,0.0,68,0.00,,,0.00,WUHU216HW,2013-10-28 08:36:00,
2013-10-28 03:41:00,39.7,29.9,29.05,NNE,23,0.0,0.0,68,0.00,,,0.00,WUHU216HW,2013-10-28 08:41:00,
2013-10-28 03:46:00,39.5,29.8,29.06,NNE,23,0.0,0.0,68,0.00,,,0.00,WUHU216HW,2013-10-28 08:46:00,
2013-10-28 03:51:00,39.3,30.0,29.06,NNE,23,0.0,0.0,69,0.00,,,0.00,WUHU216HW,2013-10-28 08:51:00,
2013-10-28 03:56:00,39.3,30.0,29.06,NE,45,0.2,0.2,69,0.00,,,0.00,WUHU216HW,2013-10-28 08:56:00,
2013-10-28 04:01:00,39.3,30.0,29.06,NNE,23,0.0,0.2,69,0.00,,,0.00,WUHU216HW,2013-10-28 09:01:00,
2013-10-28 04:06:00,39.0,29.6,29.06,NNE,23,0.0,3.3,69,0.00,,,0.00,WUHU216HW,2013-10-28 09:06:00,
2013-10-28 04:11:00,39.0,29.6,29.06,NE,45,0.0,3.3,69,0.00,,,0.00,WUHU216HW,2013-10-28 09:11:00,
2013-10-28 04:16:00,38.8,29.4,29.07,NNE,23,0.0,0.0,69,0.00,,,0.00,WUHU216HW,2013-10-28 09:16:00,
2013-10-28 04:21:00,38.8,29.8,29.07,NE,45,0.0,0.0,70,0.00,,,0.00,WUHU216HW,2013-10-28 09:21:00,
2013-10-28 04:26:00,38.8,29.8,29.07,NE,45,0.0,0.0,70,0.00,,,0.00,WUHU216HW,2013-10-28 09:26:00,
2013-10-28 04:31:00,38.8,29.8,29.08,NE,45,0.0,0.0,70,0.00,,,0.00,WUHU216HW,2013-10-28 09:31:00,
2013-10-28 04:36:00,38.4,29.5,29.08,NE,45,0.0,0.0,70,0.00,,,0.00,WUHU216HW,2013-10-28 09:36:00,
2013-10-28 04:41:00,38.4,29.5,29.08,NNE,23,0.0,0.0,70,0.00,,,0.00,WUHU216HW,2013-10-28 09:41:00,
2013-10-28 04:46:00,38.4,29.5,29.09,ENE,68,0.0,0.0,70,0.00,,,0.00,WUHU216HW,2013-10-28 09:46:00,
2013-10-28 04:52:00,38.4,29.5,29.09,NNE,23,0.0,0.0,70,0.00,,,0.00,WUHU216HW,2013-10-28 09:52:00,
2013-10-28 04:57:00,38.3,29.3,29.09,NE,45,0.0,0.0,70,0.00,,,0.00,WUHU216HW,2013-10-28 09:57:00,
2013-10-28 05:02:00,38.3,29.7,29.09,NNE,23,0.0,0.0,71,0.00,,,0.00,WUHU216HW,2013-10-28 10:02:00,
2013-10-28 05:07:00,38.3,29.7,29.09,NNE,23,0.0,0.0,71,0.00,,,0.00,WUHU216HW,2013-10-28 10:07:00,
2013-10-28 05:12:00,38.1,29.5,29.10,NNE,23,0.0,0.0,71,0.00,,,0.00,WUHU216HW,2013-10-28 10:12:00,
2013-10-28 05:17:00,38.1,29.5,29.10,NE,45,0.0,0.0,71,0.00,,,0.00,WUHU216HW,2013-10-28 10:17:00,
2013-10-28 05:22:00,37.9,29.3,29.10,SSW,203,0.0,0.0,71,0.00,,,0.00,WUHU216HW,2013-10-28 10:22:00,
2013-10-28 05:27:00,37.9,29.3,29.10,NE,45,0.0,0.0,71,0.00,,,0.00,WUHU216HW,2013-10-28 10:27:00,
2013-10-28 05:32:00,37.9,29.3,29.10,NE,45,0.0,0.0,71,0.00,,,0.00,WUHU216HW,2013-10-28 10:32:00,
2013-10-28 05:37:00,37.7,29.2,29.11,NE,45,0.0,0.0,71,0.00,,,0.00,WUHU216HW,2013-10-28 10:37:00,
2013-10-28 05:42:00,37.7,29.5,29.11,NNE,23,0.0,0.0,72,0.00,,,0.00,WUHU216HW,2013-10-28 10:42:00,
2013-10-28 05:47:00,37.5,29.5,29.12,NE,45,0.0,0.0,72,0.00,,,0.00,WUHU216HW,2013-10-28 10:47:00,
2013-10-28 05:52:00,37.5,29.3,29.12,NNE,23,0.0,0.0,72,0.00,,,0.00,WUHU216HW,2013-10-28 10:52:00,
2013-10-28 05:57:00,37.4,29.2,29.12,ENE,68,0.0,0.0,72,0.00,,,0.00,WUHU216HW,2013-10-28 10:57:00,
2013-10-28 06:02:00,37.2,29.0,29.12,NE,45,0.0,0.0,72,0.00,,,0.00,WUHU216HW,2013-10-28 11:02:00,
2013-10-28 06:07:00,37.2,29.0,29.12,NE,45,0.0,0.0,72,0.00,,,0.00,WUHU216HW,2013-10-28 11:07:00,
2013-10-28 06:12:00,37.0,29.1,29.12,NE,45,0.0,0.0,73,0.00,,,0.00,WUHU216HW,2013-10-28 11:12:00,
2013-10-28 06:17:00,37.0,29.1,29.12,SE,135,0.0,0.0,73,0.00,,,0.00,WUHU216HW,2013-10-28 11:17:00,
2013-10-28 06:23:00,36.8,29.0,29.13,SE,135,0.0,0.0,73,0.00,,,0.00,WUHU216HW,2013-10-28 11:23:00,
2013-10-28 06:28:00,36.6,28.8,29.13,NNE,23,0.0,0.0,73,0.00,,,0.00,WUHU216HW,2013-10-28 11:28:00,
2013-10-28 06:33:00,36.6,28.8,29.13,NNE,23,0.0,0.0,73,0.00,,,0.00,WUHU216HW,2013-10-28 11:33:00,
2013-10-28 06:38:00,36.5,28.6,29.13,ENE,68,0.0,0.0,73,0.00,,,0.00,WUHU216HW,2013-10-28 11:38:00,
2013-10-28 06:43:00,36.5,28.9,29.14,NE,45,0.0,0.0,74,0.00,,,0.00,WUHU216HW,2013-10-28 11:43:00,
2013-10-28 06:48:00,36.3,28.7,29.15,NE,45,0.0,0.0,74,0.00,,,0.00,WUHU216HW,2013-10-28 11:48:00,
2013-10-28 06:53:00,36.3,28.7,29.14,NNE,23,0.0,0.0,74,0.00,,,0.00,WUHU216HW,2013-10-28 11:53:00,
2013-10-28 06:58:00,36.3,28.7,29.15,NNE,23,0.0,0.0,74,0.00,,,0.00,WUHU216HW,2013-10-28 11:58:00,
2013-10-28 07:03:00,36.3,28.7,29.15,NNE,23,0.0,0.0,74,0.00,,,0.00,WUHU216HW,2013-10-28 12:03:00,
2013-10-28 07:08:00,36.3,28.7,29.15,ENE,68,0.0,0.0,74,0.00,,,0.00,WUHU216HW,2013-10-28 12:08:00,
2013-10-28 07:13:00,36.1,28.6,29.16,NNE,23,0.0,0.0,74,0.00,,,0.00,WUHU216HW,2013-10-28 12:13:00,
2013-10-28 07:18:00,36.1,28.6,29.16,ENE,68,0.0,0.0,74,0.00,,,0.00,WUHU216HW,2013-10-28 12:18:00,
2013-10-28 07:23:00,36.1,28.9,29.17,NE,45,0.0,0.0,75,0.00,,,0.00,WUHU216HW,2013-10-28 12:23:00,
2013-10-28 07:28:00,35.9,28.7,29.17,ENE,68,0.0,0.0,75,0.00,,,0.00,WUHU216HW,2013-10-28 12:28:00,
2013-10-28 07:33:00,36.1,28.7,29.17,ENE,68,0.0,0.0,75,0.00,,,0.00,WUHU216HW,2013-10-28 12:33:00,
2013-10-28 07:38:00,35.9,28.7,29.18,NE,45,0.0,0.0,75,0.00,,,0.00,WUHU216HW,2013-10-28 12:38:00,
2013-10-28 07:43:00,35.9,28.7,29.18,NE,45,0.0,0.0,75,0.00,,,0.00,WUHU216HW,2013-10-28 12:43:00,
2013-10-28 07:48:00,35.7,28.5,29.18,NE,45,0.0,0.0,75,0.00,,,0.00,WUHU216HW,2013-10-28 12:48:00,
2013-10-28 07:53:00,35.7,28.5,29.19,NE,45,0.0,0.0,75,0.00,,,0.00,WUHU216HW,2013-10-28 12:53:00,
2013-10-28 07:59:00,35.7,28.9,29.19,North,0,0.0,0.0,76,0.00,,,0.00,WUHU216HW,2013-10-28 12:59:00,
2013-10-28 08:04:00,35.7,28.9,29.19,NE,45,0.0,0.0,76,0.00,,,0.00,WUHU216HW,2013-10-28 13:04:00,
2013-10-28 08:09:00,35.6,28.7,29.19,NNE,23,0.0,0.0,76,0.00,,,0.00,WUHU216HW,2013-10-28 13:09:00,
2013-10-28 08:14:00,35.4,28.5,29.19,NE,45,0.0,0.0,76,0.00,,,0.00,WUHU216HW,2013-10-28 13:14:00,
2013-10-28 08:19:00,35.7,28.9,29.19,NE,45,0.0,2.4,76,0.00,,,0.00,WUHU216HW,2013-10-28 13:19:00,
2013-10-28 08:24:00,35.7,28.9,29.20,NE,45,0.0,2.4,76,0.00,,,0.00,WUHU216HW,2013-10-28 13:24:00,
2013-10-28 08:29:00,35.9,29.0,29.19,NE,45,0.0,0.0,76,0.00,,,0.00,WUHU216HW,2013-10-28 13:29:00,
2013-10-28 08:34:00,36.1,29.2,29.19,NE,45,0.0,0.0,76,0.00,,,0.00,WUHU216HW,2013-10-28 13:34:00,
2013-10-28 08:39:00,36.3,29.4,29.20,NE,45,0.0,0.0,76,0.00,,,0.00,WUHU216HW,2013-10-28 13:39:00,
2013-10-28 08:44:00,36.3,29.4,29.21,NE,45,0.0,0.0,76,0.00,,,0.00,WUHU216HW,2013-10-28 13:44:00,
2013-10-28 08:49:00,36.5,29.3,29.21,NE,45,0.0,0.0,75,0.00,,,0.00,WUHU216HW,2013-10-28 13:49:00,
2013-10-28 08:54:00,36.8,29.6,29.21,NE,45,0.0,0.0,75,0.00,,,0.00,WUHU216HW,2013-10-28 13:54:00,
2013-10-28 08:59:00,37.0,29.8,29.21,NE,45,0.0,0.0,75,0.00,,,0.00,WUHU216HW,2013-10-28 13:59:00,
2013-10-28 09:04:00,37.2,30.0,29.22,ENE,68,0.0,0.0,75,0.00,,,0.00,WUHU216HW,2013-10-28 14:04:00,
2013-10-28 09:09:00,37.7,30.5,29.22,ENE,68,0.0,0.0,75,0.00,,,0.00,WUHU216HW,2013-10-28 14:09:00,
2013-10-28 09:14:00,38.1,30.5,29.22,NE,45,0.0,0.0,74,0.00,,,0.00,WUHU216HW,2013-10-28 14:14:00,
2013-10-28 09:19:00,38.3,30.7,29.23,NE,45,0.0,0.0,74,0.00,,,0.00,WUHU216HW,2013-10-28 14:19:00,
2013-10-28 09:25:00,38.3,30.3,29.23,ENE,68,0.0,0.0,73,0.00,,,0.00,WUHU216HW,2013-10-28 14:25:00,
2013-10-28 09:30:00,38.4,30.5,29.23,NNE,23,0.0,7.3,73,0.00,,,0.00,WUHU216HW,2013-10-28 14:30:00,
2013-10-28 09:35:00,38.4,30.5,29.23,ESE,113,0.0,7.3,73,0.00,,,0.00,WUHU216HW,2013-10-28 14:35:00,
2013-10-28 09:40:00,38.3,30.3,29.24,SE,135,0.0,3.8,73,0.00,,,0.00,WUHU216HW,2013-10-28 14:40:00,
2013-10-28 09:45:00,38.4,30.2,29.24,NNE,23,0.0,3.8,72,0.00,,,0.00,WUHU216HW,2013-10-28 14:45:00,
2013-10-28 09:50:00,38.4,30.2,29.24,NE,45,0.0,0.0,72,0.00,,,0.00,WUHU216HW,2013-10-28 14:50:00,
2013-10-28 09:55:00,38.4,30.2,29.24,ESE,113,0.0,0.0,72,0.00,,,0.00,WUHU216HW,2013-10-28 14:55:00,
2013-10-28 10:00:00,38.4,30.2,29.24,SE,135,0.0,0.0,72,0.00,,,0.00,WUHU216HW,2013-10-28 15:00:00,
2013-10-28 10:05:00,38.8,30.5,29.24,ENE,68,0.0,0.0,72,0.00,,,0.00,WUHU216HW,2013-10-28 15:05:00,
2013-10-28 10:10:00,39.0,30.7,29.24,ENE,68,0.0,0.0,72,0.00,,,0.00,WUHU216HW,2013-10-28 15:10:00,
2013-10-28 10:15:00,39.5,31.2,29.24,ENE,68,1.3,1.3,72,0.00,,,0.00,WUHU216HW,2013-10-28 15:15:00,
2013-10-28 10:20:00,39.9,31.2,29.23,ESE,113,2.0,2.0,71,0.00,,,0.00,WUHU216HW,2013-10-28 15:20:00,
2013-10-28 10:25:00,40.2,31.2,29.23,SE,135,0.0,2.0,70,0.00,,,0.00,WUHU216HW,2013-10-28 15:25:00,
2013-10-28 10:30:00,40.6,31.6,29.23,East,90,0.0,3.3,70,0.00,,,0.00,WUHU216HW,2013-10-28 15:30:00,
2013-10-28 10:35:00,41.0,31.6,29.24,ESE,113,0.0,6.2,69,0.00,,,0.00,WUHU216HW,2013-10-28 15:35:00,
2013-10-28 10:40:00,41.1,31.4,29.24,NE,45,7.3,7.3,68,0.00,,,0.00,WUHU216HW,2013-10-28 15:40:00,
2013-10-28 10:45:00,41.3,31.5,29.24,ENE,68,0.0,7.3,68,0.00,,,0.00,WUHU216HW,2013-10-28 15:45:00,
2013-10-28 10:50:00,41.5,31.7,29.24,SE,135,2.0,7.3,68,0.00,,,0.00,WUHU216HW,2013-10-28 15:50:00,
2013-10-28 10:56:00,41.5,31.7,29.25,NE,45,0.0,2.6,68,0.00,,,0.00,WUHU216HW,2013-10-28 15:56:00,
2013-10-28 11:01:00,41.7,31.5,29.24,ENE,68,0.0,0.0,67,0.00,,,0.00,WUHU216HW,2013-10-28 16:01:00,
2013-10-28 11:06:00,41.7,31.5,29.24,NNE,23,0.0,0.0,67,0.00,,,0.00,WUHU216HW,2013-10-28 16:06:00,
2013-10-28 11:11:00,41.9,31.3,29.25,ENE,68,0.0,0.0,66,0.00,,,0.00,WUHU216HW,2013-10-28 16:11:00,
2013-10-28 11:16:00,42.0,31.5,29.24,SE,135,1.5,1.5,66,0.00,,,0.00,WUHU216HW,2013-10-28 16:16:00,
2013-10-28 11:21:00,42.4,31.8,29.24,NE,45,0.0,5.1,66,0.00,,,0.00,WUHU216HW,2013-10-28 16:21:00,
2013-10-28 11:26:00,42.4,31.8,29.24,ESE,113,0.0,5.1,66,0.00,,,0.00,WUHU216HW,2013-10-28 16:26:00,
2013-10-28 11:31:00,42.4,31.4,29.25,NE,45,3.5,3.5,65,0.00,,,0.00,WUHU216HW,2013-10-28 16:31:00,
2013-10-28 11:36:00,42.4,31.4,29.24,SE,135,0.0,3.5,65,0.00,,,0.00,WUHU216HW,2013-10-28 16:36:00,
2013-10-28 11:41:00,42.6,31.6,29.25,ENE,68,0.0,0.0,65,0.00,,,0.00,WUHU216HW,2013-10-28 16:41:00,
2013-10-28 11:46:00,42.9,31.9,29.25,ESE,113,2.4,2.4,65,0.00,,,0.00,WUHU216HW,2013-10-28 16:46:00,
2013-10-28 11:51:00,43.1,31.7,29.25,SE,135,0.0,2.4,64,0.00,,,0.00,WUHU216HW,2013-10-28 16:51:00,
2013-10-28 11:56:00,43.3,31.9,29.25,ESE,113,7.6,7.6,64,0.00,,,0.00,WUHU216HW,2013-10-28 16:56:00,
2013-10-28 12:02:00,43.5,32.1,29.25,ESE,113,0.0,7.6,64,0.00,,,0.00,WUHU216HW,2013-10-28 17:02:00,
2013-10-28 12:07:00,43.7,32.2,29.25,ENE,68,0.0,7.3,64,0.00,,,0.00,WUHU216HW,2013-10-28 17:07:00,
2013-10-28 12:12:00,43.8,32.0,29.26,SE,135,5.5,5.5,63,0.00,,,0.00,WUHU216HW,2013-10-28 17:12:00,
2013-10-28 12:17:00,43.8,32.0,29.26,ESE,113,0.0,5.5,63,0.00,,,0.00,WUHU216HW,2013-10-28 17:17:00,
2013-10-28 12:22:00,44.0,32.2,29.26,ESE,113,0.0,4.0,63,0.00,,,0.00,WUHU216HW,2013-10-28 17:22:00,
2013-10-28 12:27:00,44.2,32.4,29.26,ESE,113,0.0,0.0,63,0.00,,,0.00,WUHU216HW,2013-10-28 17:27:00,
2013-10-28 12:32:00,44.4,32.2,29.26,NNE,23,6.9,6.9,62,0.00,,,0.00,WUHU216HW,2013-10-28 17:32:00,
2013-10-28 12:37:00,44.4,32.2,29.26,ESE,113,0.0,6.9,62,0.00,,,0.00,WUHU216HW,2013-10-28 17:37:00,
2013-10-28 12:42:00,44.4,32.2,29.26,SE,135,0.0,0.0,62,0.00,,,0.00,WUHU216HW,2013-10-28 17:42:00,
2013-10-28 12:47:00,44.6,32.3,29.26,ESE,113,0.0,0.0,62,0.00,,,0.00,WUHU216HW,2013-10-28 17:47:00,
2013-10-28 12:52:00,44.7,32.5,29.26,ESE,113,0.0,0.0,62,0.00,,,0.00,WUHU216HW,2013-10-28 17:52:00,
2013-10-28 12:57:00,45.1,32.8,29.25,ESE,113,0.0,0.0,62,0.00,,,0.00,WUHU216HW,2013-10-28 17:57:00,
2013-10-28 13:03:00,45.1,32.8,29.25,ESE,113,0.0,0.0,62,0.00,,,0.00,WUHU216HW,2013-10-28 18:03:00,
2013-10-28 13:08:00,45.3,32.6,29.24,NE,45,0.0,0.0,62,0.00,,,0.00,WUHU216HW,2013-10-28 18:08:00,
2013-10-28 13:13:00,45.5,32.8,29.24,NE,45,0.0,0.0,61,0.00,,,0.00,WUHU216HW,2013-10-28 18:13:00,
2013-10-28 13:18:00,45.5,32.8,29.24,ESE,113,0.0,0.0,61,0.00,,,0.00,WUHU216HW,2013-10-28 18:18:00,
2013-10-28 13:23:00,45.6,32.9,29.24,NNE,23,2.0,2.0,61,0.00,,,0.00,WUHU216HW,2013-10-28 18:23:00,
2013-10-28 13:28:00,45.6,32.9,29.24,SE,135,0.0,2.0,61,0.00,,,0.00,WUHU216HW,2013-10-28 18:28:00,
2013-10-28 13:33:00,45.6,32.9,29.24,ESE,113,0.0,0.0,61,0.00,,,0.00,WUHU216HW,2013-10-28 18:33:00,
2013-10-28 13:38:00,45.6,32.9,29.23,ENE,68,0.0,0.0,61,0.00,,,0.00,WUHU216HW,2013-10-28 18:38:00,
2013-10-28 13:43:00,45.6,32.9,29.23,NNE,23,0.0,0.0,61,0.00,,,0.00,WUHU216HW,2013-10-28 18:43:00,
2013-10-28 13:48:00,46.0,33.3,29.23,NE,45,0.0,0.0,61,0.00,,,0.00,WUHU216HW,2013-10-28 18:48:00,
2013-10-28 13:53:00,46.2,33.0,29.23,NE,45,0.0,0.0,60,0.00,,,0.00,WUHU216HW,2013-10-28 18:53:00,
2013-10-28 13:58:00,46.2,33.0,29.23,ESE,113,0.0,0.0,60,0.00,,,0.00,WUHU216HW,2013-10-28 18:58:00,
2013-10-28 14:03:00,46.7,33.6,29.23,East,90,0.0,0.0,60,0.00,,,0.00,WUHU216HW,2013-10-28 19:03:00,
2013-10-28 14:09:00,46.7,33.1,29.23,ENE,68,0.0,0.0,59,0.00,,,0.00,WUHU216HW,2013-10-28 19:09:00,
2013-10-28 14:14:00,46.5,32.9,29.23,ESE,113,0.0,0.0,59,0.00,,,0.00,WUHU216HW,2013-10-28 19:14:00,
2013-10-28 14:19:00,46.2,32.6,29.23,ENE,68,0.0,0.0,59,0.00,,,0.00,WUHU216HW,2013-10-28 19:19:00,
2013-10-28 14:24:00,46.2,33.0,29.22,ENE,68,0.0,0.0,60,0.00,,,0.00,WUHU216HW,2013-10-28 19:24:00,
2013-10-28 14:29:00,46.4,33.2,29.22,ENE,68,0.0,0.0,60,0.00,,,0.00,WUHU216HW,2013-10-28 19:29:00,
2013-10-28 14:34:00,46.5,32.9,29.22,ESE,113,0.0,0.0,59,0.00,,,0.00,WUHU216HW,2013-10-28 19:34:00,
2013-10-28 14:39:00,46.2,32.6,29.22,NE,45,0.0,0.0,59,0.00,,,0.00,WUHU216HW,2013-10-28 19:39:00,
2013-10-28 14:44:00,46.2,32.6,29.22,ESE,113,0.0,0.0,59,0.00,,,0.00,WUHU216HW,2013-10-28 19:44:00,
2013-10-28 14:49:00,46.4,32.8,29.23,ENE,68,0.0,0.0,59,0.00,,,0.00,WUHU216HW,2013-10-28 19:49:00,
2013-10-28 14:54:00,46.4,32.8,29.23,ENE,68,0.0,0.0,59,0.00,,,0.00,WUHU216HW,2013-10-28 19:54:00,
2013-10-28 14:59:00,46.5,32.9,29.23,NNE,23,0.0,0.0,59,0.00,,,0.00,WUHU216HW,2013-10-28 19:59:00,
2013-10-28 15:04:00,46.7,33.1,29.23,SSE,158,0.0,0.0,59,0.00,,,0.00,WUHU216HW,2013-10-28 20:04:00,
2013-10-28 15:09:00,47.1,33.5,29.23,NE,45,0.0,0.0,59,0.00,,,0.00,WUHU216HW,2013-10-28 20:09:00,
2013-10-28 15:15:00,47.1,33.0,29.23,East,90,0.0,0.0,58,0.00,,,0.00,WUHU216HW,2013-10-28 20:15:00,
2013-10-28 15:20:00,47.3,33.2,29.23,ESE,113,0.0,0.0,58,0.00,,,0.00,WUHU216HW,2013-10-28 20:20:00,
2013-10-28 15:25:00,47.1,33.0,29.23,ESE,113,0.0,0.0,58,0.00,,,0.00,WUHU216HW,2013-10-28 20:25:00,
2013-10-28 15:30:00,46.7,32.7,29.23,NNE,23,0.0,0.0,58,0.00,,,0.00,WUHU216HW,2013-10-28 20:30:00,
2013-10-28 15:35:00,46.5,32.5,29.23,NNE,23,0.0,0.0,58,0.00,,,0.00,WUHU216HW,2013-10-28 20:35:00,
2013-10-28 15:40:00,46.5,32.5,29.24,ENE,68,0.0,0.0,58,0.00,,,0.00,WUHU216HW,2013-10-28 20:40:00,
2013-10-28 15:45:00,46.5,32.9,29.24,NE,45,0.0,0.0,59,0.00,,,0.00,WUHU216HW,2013-10-28 20:45:00,
2013-10-28 15:50:00,46.5,32.9,29.25,ESE,113,0.0,0.0,59,0.00,,,0.00,WUHU216HW,2013-10-28 20:50:00,
2013-10-28 15:55:00,46.4,32.8,29.24,ESE,113,1.1,1.1,59,0.00,,,0.00,WUHU216HW,2013-10-28 20:55:00,
2013-10-28 16:00:00,46.4,32.8,29.24,North,0,0.0,1.1,59,0.00,,,0.00,WUHU216HW,2013-10-28 21:00:00,
2013-10-28 16:05:00,46.2,32.6,29.24,NE,45,0.0,0.0,59,0.00,,,0.00,WUHU216HW,2013-10-28 21:05:00,
2013-10-28 16:10:00,46.2,32.6,29.24,ESE,113,0.0,0.0,59,0.00,,,0.00,WUHU216HW,2013-10-28 21:10:00,
2013-10-28 16:15:00,46.2,32.6,29.24,East,90,0.0,0.0,59,0.00,,,0.00,WUHU216HW,2013-10-28 21:15:00,
2013-10-28 16:21:00,46.2,32.6,29.24,SE,135,0.0,0.0,59,0.00,,,0.00,WUHU216HW,2013-10-28 21:21:00,
2013-10-28 16:26:00,46.2,32.6,29.24,SE,135,0.0,0.0,59,0.00,,,0.00,WUHU216HW,2013-10-28 21:26:00,
2013-10-28 16:31:00,46.2,32.6,29.24,SSE,158,0.0,0.0,59,0.00,,,0.00,WUHU216HW,2013-10-28 21:31:00,
2013-10-28 16:36:00,46.0,32.4,29.23,ESE,113,0.0,0.0,59,0.00,,,0.00,WUHU216HW,2013-10-28 21:36:00,
2013-10-28 16:41:00,45.6,32.1,29.23,SE,135,1.7,1.7,59,0.00,,,0.00,WUHU216HW,2013-10-28 21:41:00,
2013-10-28 16:46:00,45.3,31.8,29.23,ESE,113,0.0,1.7,59,0.00,,,0.00,WUHU216HW,2013-10-28 21:46:00,
2013-10-28 16:51:00,45.1,32.1,29.23,ENE,68,0.0,0.0,60,0.00,,,0.00,WUHU216HW,2013-10-28 21:51:00,
2013-10-28 16:56:00,45.1,32.1,29.23,ESE,113,0.0,0.0,60,0.00,,,0.00,WUHU216HW,2013-10-28 21:56:00,
2013-10-28 17:01:00,44.9,32.3,29.24,ENE,68,0.0,0.0,61,0.00,,,0.00,WUHU216HW,2013-10-28 22:01:00,
2013-10-28 17:06:00,44.7,31.8,29.24,ESE,113,0.0,0.0,60,0.00,,,0.00,WUHU216HW,2013-10-28 22:06:00,
2013-10-28 17:12:00,44.4,31.8,29.24,ENE,68,0.0,0.0,61,0.00,,,0.00,WUHU216HW,2013-10-28 22:12:00,
2013-10-28 17:17:00,44.4,31.8,29.24,NE,45,0.0,0.0,61,0.00,,,0.00,WUHU216HW,2013-10-28 22:17:00,
2013-10-28 17:22:00,44.2,31.6,29.23,ESE,113,0.0,0.0,61,0.00,,,0.00,WUHU216HW,2013-10-28 22:22:00,
2013-10-28 17:27:00,43.8,31.2,29.23,North,0,0.0,0.0,62,0.00,,,0.00,WUHU216HW,2013-10-28 22:27:00,
2013-10-28 17:32:00,43.5,31.3,29.24,ENE,68,0.0,0.0,62,0.00,,,0.00,WUHU216HW,2013-10-28 22:32:00,
2013-10-28 17:37:00,43.5,31.3,29.23,ESE,113,0.0,0.0,62,0.00,,,0.00,WUHU216HW,2013-10-28 22:37:00,
2013-10-28 17:42:00,43.1,31.1,29.24,SSE,158,0.0,0.0,62,0.00,,,0.00,WUHU216HW,2013-10-28 22:42:00,
2013-10-28 17:47:00,43.1,30.9,29.24,ESE,113,0.0,0.0,62,0.00,,,0.00,WUHU216HW,2013-10-28 22:47:00,
2013-10-28 17:52:00,42.8,30.7,29.24,NE,45,0.0,0.0,62,0.00,,,0.00,WUHU216HW,2013-10-28 22:52:00,
2013-10-28 17:57:00,42.6,30.4,29.24,ESE,113,0.0,0.0,62,0.00,,,0.00,WUHU216HW,2013-10-28 22:57:00,
2013-10-28 18:02:00,42.4,30.2,29.24,SE,135,0.0,0.0,62,0.00,,,0.00,WUHU216HW,2013-10-28 23:02:00,
2013-10-28 18:07:00,42.2,30.5,29.24,SE,135,0.0,0.0,63,0.00,,,0.00,WUHU216HW,2013-10-28 23:07:00,
2013-10-28 18:13:00,42.0,30.3,29.24,SE,135,0.0,0.0,63,0.00,,,0.00,WUHU216HW,2013-10-28 23:13:00,
2013-10-28 18:18:00,41.7,30.0,29.24,SE,135,0.0,0.0,63,0.00,,,0.00,WUHU216HW,2013-10-28 23:18:00,
2013-10-28 18:23:00,41.5,30.2,29.24,NNW,338,0.0,0.0,64,0.00,,,0.00,WUHU216HW,2013-10-28 23:23:00,
2013-10-28 18:28:00,41.3,30.0,29.25,NE,45,0.0,0.0,64,0.00,,,0.00,WUHU216HW,2013-10-28 23:28:00,
2013-10-28 18:33:00,41.1,29.8,29.25,East,90,0.0,0.0,64,0.00,,,0.00,WUHU216HW,2013-10-28 23:33:00,
2013-10-28 18:38:00,40.8,29.9,29.25,ESE,113,0.0,0.0,65,0.00,,,0.00,WUHU216HW,2013-10-28 23:38:00,
2013-10-28 18:43:00,40.8,29.9,29.25,ESE,113,0.0,0.0,65,0.00,,,0.00,WUHU216HW,2013-10-28 23:43:00,
2013-10-28 18:48:00,40.8,29.9,29.25,ESE,113,0.0,0.0,65,0.00,,,0.00,WUHU216HW,2013-10-28 23:48:00,
2013-10-28 18:53:00,40.6,29.7,29.25,SE,135,0.0,0.0,65,0.00,,,0.00,WUHU216HW,2013-10-28 23:53:00,
2013-10-28 18:58:00,40.2,29.3,29.24,ESE,113,0.0,0.0,65,0.00,,,0.00,WUHU216HW,2013-10-28 23:58:00,
2013-10-28 19:03:00,40.2,29.7,29.25,ESE,113,0.0,0.0,66,0.00,,,0.00,WUHU216HW,2013-10-29 00:03:00,
2013-10-28 19:08:00,40.1,29.5,29.25,ESE,113,0.0,0.0,66,0.00,,,0.00,WUHU216HW,2013-10-29 00:08:00,
2013-10-28 19:14:00,40.1,29.5,29.25,ESE,113,0.0,0.0,66,0.00,,,0.00,WUHU216HW,2013-10-29 00:14:00,
2013-10-28 19:19:00,39.9,29.4,29.24,ESE,113,0.0,0.0,66,0.00,,,0.00,WUHU216HW,2013-10-29 00:19:00,
2013-10-28 19:24:00,39.9,29.4,29.25,NE,45,0.0,0.0,66,0.00,,,0.00,WUHU216HW,2013-10-29 00:24:00,
2013-10-28 19:29:00,39.9,29.4,29.25,ESE,113,0.0,0.0,66,0.00,,,0.00,WUHU216HW,2013-10-29 00:29:00,
2013-10-28 19:34:00,39.7,29.2,29.26,SE,135,0.0,0.0,66,0.00,,,0.00,WUHU216HW,2013-10-29 00:34:00,
2013-10-28 19:39:00,39.7,29.2,29.26,South,180,0.0,0.0,66,0.00,,,0.00,WUHU216HW,2013-10-29 00:39:00,
2013-10-28 19:44:00,39.7,29.6,29.26,SSE,158,0.0,0.0,67,0.00,,,0.00,WUHU216HW,2013-10-29 00:44:00,
2013-10-28 19:49:00,39.5,29.4,29.27,ESE,113,0.0,0.0,67,0.00,,,0.00,WUHU216HW,2013-10-29 00:49:00,
2013-10-28 19:54:00,39.5,29.4,29.26,ESE,113,0.0,0.0,67,0.00,,,0.00,WUHU216HW,2013-10-29 00:54:00,
2013-10-28 19:59:00,39.3,29.2,29.26,ESE,113,0.0,0.0,67,0.00,,,0.00,WUHU216HW,2013-10-29 00:59:00,
2013-10-28 20:04:00,39.3,29.2,29.26,East,90,0.0,0.0,67,0.00,,,0.00,WUHU216HW,2013-10-29 01:04:00,
2013-10-28 20:10:00,39.3,29.2,29.26,East,90,0.0,0.0,67,0.00,,,0.00,WUHU216HW,2013-10-29 01:10:00,
2013-10-28 20:15:00,39.2,29.0,29.26,ESE,113,0.0,0.0,67,0.00,,,0.00,WUHU216HW,2013-10-29 01:15:00,
2013-10-28 20:20:00,39.0,28.9,29.26,ESE,113,0.0,0.0,67,0.00,,,0.00,WUHU216HW,2013-10-29 01:20:00,
2013-10-28 20:25:00,39.0,28.9,29.26,ESE,113,0.0,0.0,67,0.00,,,0.00,WUHU216HW,2013-10-29 01:25:00,
2013-10-28 20:30:00,39.0,28.9,29.26,ESE,113,0.0,0.0,67,0.00,,,0.00,WUHU216HW,2013-10-29 01:30:00,
2013-10-28 20:35:00,39.0,28.9,29.26,ESE,113,0.0,0.0,67,0.00,,,0.00,WUHU216HW,2013-10-29 01:35:00,
2013-10-28 20:40:00,38.8,28.7,29.26,ENE,68,0.0,0.0,67,0.00,,,0.00,WUHU216HW,2013-10-29 01:40:00,
2013-10-28 20:45:00,39.0,28.9,29.26,East,90,0.0,0.0,67,0.00,,,0.00,WUHU216HW,2013-10-29 01:45:00,
2013-10-28 20:50:00,39.0,28.9,29.26,NE,45,0.0,0.0,67,0.00,,,0.00,WUHU216HW,2013-10-29 01:50:00,
2013-10-28 20:55:00,39.0,28.9,29.26,NE,45,0.0,0.0,67,0.00,,,0.00,WUHU216HW,2013-10-29 01:55:00,
2013-10-28 21:00:00,38.8,28.7,29.26,NE,45,0.0,0.0,67,0.00,,,0.00,WUHU216HW,2013-10-29 02:00:00,
2013-10-28 21:05:00,38.8,28.7,29.26,NE,45,0.0,0.0,67,0.00,,,0.00,WUHU216HW,2013-10-29 02:05:00,
2013-10-28 21:11:00,38.8,28.7,29.26,East,90,0.0,0.0,67,0.00,,,0.00,WUHU216HW,2013-10-29 02:11:00,
2013-10-28 21:16:00,38.8,28.7,29.26,ENE,68,0.0,0.0,67,0.00,,,0.00,WUHU216HW,2013-10-29 02:16:00,
2013-10-28 21:21:00,38.6,28.5,29.26,East,90,0.0,0.0,67,0.00,,,0.00,WUHU216HW,2013-10-29 02:21:00,
2013-10-28 21:26:00,38.4,28.4,29.26,East,90,0.0,0.0,67,0.00,,,0.00,WUHU216HW,2013-10-29 02:26:00,
2013-10-28 21:31:00,38.4,28.4,29.26,NE,45,0.0,0.0,67,0.00,,,0.00,WUHU216HW,2013-10-29 02:31:00,
2013-10-28 21:36:00,38.4,28.4,29.26,North,0,0.0,0.0,67,0.00,,,0.00,WUHU216HW,2013-10-29 02:36:00,
2013-10-28 21:41:00,38.4,28.7,29.25,ESE,113,0.0,0.0,68,0.00,,,0.00,WUHU216HW,2013-10-29 02:41:00,
2013-10-28 21:46:00,38.4,28.7,29.26,SE,135,0.0,0.0,68,0.00,,,0.00,WUHU216HW,2013-10-29 02:46:00,
2013-10-28 21:51:00,38.4,28.7,29.26,SE,135,0.0,0.0,68,0.00,,,0.00,WUHU216HW,2013-10-29 02:51:00,
2013-10-28 21:56:00,38.4,28.7,29.26,SE,135,0.0,0.0,68,0.00,,,0.00,WUHU216HW,2013-10-29 02:56:00,
2013-10-28 22:01:00,38.4,28.7,29.26,ESE,113,0.0,0.0,68,0.00,,,0.00,WUHU216HW,2013-10-29 03:01:00,
2013-10-28 22:07:00,38.4,28.7,29.26,SE,135,0.0,0.0,68,0.00,,,0.00,WUHU216HW,2013-10-29 03:07:00,
2013-10-28 22:12:00,38.6,28.9,29.26,East,90,0.0,0.0,68,0.00,,,0.00,WUHU216HW,2013-10-29 03:12:00,
2013-10-28 22:17:00,38.6,28.9,29.26,East,90,0.0,0.0,68,0.00,,,0.00,WUHU216HW,2013-10-29 03:17:00,
2013-10-28 22:22:00,38.6,28.9,29.26,SE,135,0.0,0.0,68,0.00,,,0.00,WUHU216HW,2013-10-29 03:22:00,
2013-10-28 22:27:00,38.8,29.1,29.26,ENE,68,0.0,0.0,68,0.00,,,0.00,WUHU216HW,2013-10-29 03:27:00,
2013-10-28 22:32:00,38.8,29.1,29.26,ESE,113,0.0,0.0,68,0.00,,,0.00,WUHU216HW,2013-10-29 03:32:00,
2013-10-28 22:37:00,38.8,29.1,29.26,SE,135,0.0,0.0,68,0.00,,,0.00,WUHU216HW,2013-10-29 03:37:00,
2013-10-28 22:42:00,38.8,29.1,29.26,SE,135,0.0,0.0,68,0.00,,,0.00,WUHU216HW,2013-10-29 03:42:00,
2013-10-28 22:47:00,38.8,29.1,29.26,ESE,113,0.0,0.0,68,0.00,,,0.00,WUHU216HW,2013-10-29 03:47:00,
2013-10-28 22:52:00,38.8,29.1,29.26,ESE,113,0.0,0.0,68,0.00,,,0.00,WUHU216HW,2013-10-29 03:52:00,
2013-10-28 22:58:00,38.8,29.1,29.27,ESE,113,0.0,0.0,68,0.00,,,0.00,WUHU216HW,2013-10-29 03:58:00,
2013-10-28 23:01:00,38.8,29.1,29.27,ESE,113,0.0,0.0,68,0.00,,,0.00,WUHU216HW,2013-10-29 04:01:00,
2013-10-28 23:02:00,38.8,29.1,29.27,ESE,113,0.0,0.0,68,0.00,,,0.00,WUHU216HW,2013-10-29 04:02:00,
2013-10-28 23:03:00,38.8,29.1,29.27,ESE,113,0.0,0.0,68,0.00,,,0.00,WUHU216HW,2013-10-29 04:03:00,
2013-10-28 23:08:00,38.8,29.1,29.27,ESE,113,0.0,0.0,68,0.00,,,0.00,WUHU216HW,2013-10-29 04:08:00,
2013-10-28 23:13:00,38.8,29.1,29.27,ESE,113,0.0,0.0,68,0.00,,,0.00,WUHU216HW,2013-10-29 04:13:00,
2013-10-28 23:18:00,38.8,29.1,29.27,ESE,113,0.0,0.0,68,0.00,,,0.00,WUHU216HW,2013-10-29 04:18:00,
2013-10-28 23:24:00,38.8,29.1,29.26,SE,135,0.0,0.0,68,0.00,,,0.00,WUHU216HW,2013-10-29 04:24:00,
2013-10-28 23:29:00,38.8,29.1,29.26,SE,135,0.0,0.0,68,0.00,,,0.00,WUHU216HW,2013-10-29 04:29:00,
2013-10-28 23:34:00,38.6,28.9,29.26,SE,135,0.0,0.0,68,0.00,,,0.00,WUHU216HW,2013-10-29 04:34:00,
2013-10-28 23:39:00,38.4,28.7,29.26,SE,135,0.0,0.0,68,0.00,,,0.00,WUHU216HW,2013-10-29 04:39:00,
2013-10-28 23:44:00,38.4,28.7,29.25,ENE,68,0.0,0.0,68,0.00,,,0.00,WUHU216HW,2013-10-29 04:44:00,
2013-10-28 23:49:00,38.4,29.1,29.25,SE,135,0.0,0.0,69,0.00,,,0.00,WUHU216HW,2013-10-29 04:49:00,
2013-10-28 23:54:00,38.4,29.1,29.25,SE,135,0.0,0.0,69,0.00,,,0.00,WUHU216HW,2013-10-29 04:54:00,
2013-10-28 23:59:00,38.4,29.1,29.26,SE,135,0.0,0.0,69,0.00,,,0.00,WUHU216HW,2013-10-29 04:59:00,